TITAN 3C TRANSTAGE DEB, 1959

Orbit data source: Space-Track

TITAN 3C TRANSTAGE DEB, 1959 is space debris in LEO originally from a launch on Fri, 15 Oct 1965 UTC launched from the Air Force Eastern Test Range (AFETR). Debris objects in space refer to the collection of defunct objects orbiting the Earth. Examples of debris include non-operational satellites, rocket bodies, and fragments generated from explosions, collisions, or faulty payload assembly.

Loading next visibility...
Identifier
1959, 1965-082GU
Orbit
LEO
Last TLE update
2 days ago
Origin
Manufacturer
Unknown
Mission
Spacecraft
Bus & Motor
Unknown
Mass
Unknown
Launch date (UTC)
1965-10-15 (60 years ago)
Launch vehicle
Unknown
Launch site
Air Force Eastern Test Range (AFETR)
Object type
Payload
Rocket body
Debris
Shape & HBR
Unknown
Radar Cross Section
Small (<0.1 m²)

Expand to show TLE details & history

TLE from 2 days ago
0 TITAN 3C TRANSTAGE DEB
1  1959U 65082GU  25181.54264993  .00000364  00000-0  65311-4 0  9997
2  1959  31.7905 286.8976 0062892 290.2435  69.1450 14.58545841162390
Epoch: 2025-06-30T13:01Z
TLE epoch observation values (Epoch: 2025-06-30T13:01:24.953Z)
Latitude
-0.00001°
Longitude
172.69265°
Altitude
680.899 km
Speed
7.527 km/s
True Right ascension
19h 07m 35s
True Declination
0° 00' 00"
Sunlit
Object was in full shadow at epoch
Visualization orbit readout
Latitude
7.00993°
Longitude
173.96187°
Altitude
678.662 km
Speed
7.529 km/s
Apparent Right ascension
21h 34m 08s
Apparent Declination
-47° 20' 26"
Sunlit
Object is in full shadow
Visualization observer readout
Local Sidereal Time
17:50:42
Azimuth
145.237° SSE
Elevation
-10.38°
Doppler factor
1
Orbital elements
Apogee altitude
746.037 km
Perigee altitude
656.987 km
Semi-major axis
7,079.649 km
Eccentricity
0.00629
Inclination
31.7905°
RAAN
286.8976°
Arg. of periapsis
290.2435°
True anomaly
Unknown
Mean anomaly
69.145°
Eccentric anomaly
Unknown
Mean motion
3.64356 °/min
Orbital period
98.8 mins
BSTAR
0.000065311
Loading maneuver chart data...
Loading SW <> Apogee altitude chart data...

TITAN 3C TRANSTAGE DEB Visibility forecast

Observer location: undefined°, undefined°

Span
Click to sort rows by Start time (UTC) header in descending order
Start Az.
Max El. time (UTC)
Max El. Az.
Max El.
End time (UTC)
End Az.
4 mins2025-07-02 09:36:01.321Z176.01° S2025-07-02 09:38:01.321Z150.862° SSE13.348°2025-07-02 09:40:01.321Z127.287° SE
7 mins2025-07-02 11:19:01.321Z212.637° SW2025-07-02 11:22:01.321Z160.661° S25.204°2025-07-02 11:26:01.321Z110.897° ESE
7 mins2025-07-02 13:03:01.321Z233.04° WSW2025-07-02 13:06:01.321Z178.657° S28.429°2025-07-02 13:10:01.321Z123.631° SE
6 mins2025-07-02 14:47:01.321Z237.976° WSW2025-07-02 14:50:01.321Z196.531° SSW20.129°2025-07-02 14:53:01.321Z156.592° SSE
|